TimeCST,TemperatureF,Dew PointF,Humidity,Sea Level PressureIn,VisibilityMPH,Wind Direction,Wind SpeedMPH,Gust SpeedMPH,PrecipitationIn,Events,Conditions,WindDirDegrees,DateUTC
12:53 AM,57.0,52.0,83,30.12,8.0,West,9.2,-,0.00,Rain,Light Rain,260,2012-11-23 06:53:00
1:53 AM,57.9,55.0,90,30.13,5.0,West,10.4,-,N/A,Rain,Rain,260,2012-11-23 07:53:00
2:53 AM,57.9,55.0,90,30.13,8.0,WSW,9.2,-,N/A,Rain,Light Rain,240,2012-11-23 08:53:00
3:53 AM,57.9,54.0,87,30.15,10.0,West,11.5,-,N/A,,Overcast,280,2012-11-23 09:53:00
4:18 AM,57.2,53.6,88,30.15,8.0,NW,5.8,-,N/A,,Overcast,320,2012-11-23 10:18:00
4:26 AM,57.2,53.6,88,30.16,10.0,NW,9.2,-,N/A,,Overcast,320,2012-11-23 10:26:00
4:53 AM,57.0,53.1,87,30.17,10.0,NNW,6.9,-,N/A,,Overcast,340,2012-11-23 10:53:00
5:53 AM,55.0,48.9,80,30.22,10.0,NNW,11.5,-,N/A,,Overcast,340,2012-11-23 11:53:00
6:53 AM,50.0,39.0,66,30.26,10.0,NNW,4.6,-,N/A,,Clear,330,2012-11-23 12:53:00
7:53 AM,51.1,37.9,61,30.28,10.0,NNW,4.6,-,N/A,,Clear,330,2012-11-23 13:53:00
8:53 AM,52.0,37.0,57,30.30,10.0,NW,9.2,-,N/A,,Clear,320,2012-11-23 14:53:00
9:53 AM,54.0,32.0,43,30.29,10.0,NNW,10.4,21.9,N/A,,Clear,330,2012-11-23 15:53:00
10:53 AM,55.0,34.0,45,30.28,10.0,WNW,10.4,-,N/A,,Clear,300,2012-11-23 16:53:00
11:53 AM,57.0,32.0,39,30.26,10.0,NW,13.8,23.0,N/A,,Clear,320,2012-11-23 17:53:00
12:53 PM,57.9,32.0,37,30.25,10.0,NW,12.7,24.2,N/A,,Clear,310,2012-11-23 18:53:00
1:53 PM,57.9,32.0,37,30.25,10.0,NNW,15.0,21.9,N/A,,Clear,340,2012-11-23 19:53:00
2:53 PM,55.0,30.9,40,30.26,10.0,NW,17.3,24.2,N/A,,Clear,320,2012-11-23 20:53:00
3:53 PM,54.0,30.9,41,30.27,10.0,NNW,15.0,24.2,N/A,,Clear,330,2012-11-23 21:53:00
4:53 PM,50.0,28.9,44,30.28,10.0,NW,12.7,20.7,N/A,,Clear,320,2012-11-23 22:53:00
5:53 PM,48.0,28.0,46,30.30,10.0,NNW,5.8,-,N/A,,Clear,330,2012-11-23 23:53:00
6:53 PM,46.0,28.0,50,30.32,10.0,NNW,6.9,-,N/A,,Clear,330,2012-11-24 00:53:00
7:53 PM,45.0,26.1,48,30.33,10.0,NW,9.2,18.4,N/A,,Clear,320,2012-11-24 01:53:00
8:53 PM,43.0,25.0,49,30.35,10.0,NW,8.1,-,N/A,,Clear,320,2012-11-24 02:53:00
9:53 PM,41.0,24.1,51,30.36,10.0,NNW,4.6,-,N/A,,Clear,340,2012-11-24 03:53:00
10:53 PM,39.0,23.0,53,30.38,10.0,NW,4.6,-,N/A,,Clear,320,2012-11-24 04:53:00
11:53 PM,37.9,21.9,53,30.37,10.0,NW,4.6,-,N/A,,Clear,320,2012-11-24 05:53:00